KLM124 EGKK-EDDF

Flight info

Callsign KLM124
Flight time N/A
Altitude 35000
Route EGKK/26L N0466F350 MIMF1M MIMFO Y312 DVR UL9 KONAN UL607 KOK DCT REMBA UL607 SPI T180 NIVNU/N0401F230 T847 IMCOM IMCO1A EDDF/25R
Aircraft B772/H-V/N

Departure

Time 2026-04-17 21:58
Airport London Gatwick Airport (EGKK)

Arrival

Time N/A
Airport Frankfurt Main Airport (EDDF)
Time Latitude Longitude Altitude Speed Heading
2026-04-17 21:39 51.15876 -0.16977 204 ft 0 kts 106°
2026-04-17 21:43 51.15876 -0.16976 204 ft 0 kts 106°
2026-04-17 21:43 51.15876 -0.16982 204 ft 1 kts 106°
2026-04-17 21:44 51.15883 -0.17011 204 ft 3 kts 121°
2026-04-17 21:44 51.15895 -0.17031 204 ft 2 kts 158°
2026-04-17 21:44 51.15912 -0.17035 204 ft 2 kts 187°
2026-04-17 21:44 51.15935 -0.17025 204 ft 3 kts 206°
2026-04-17 21:45 51.15945 -0.17018 204 ft 0 kts 208°
2026-04-17 21:50 51.15932 -0.17028 204 ft 5 kts 206°
2026-04-17 21:51 51.15868 -0.17067 204 ft 11 kts 198°
2026-04-17 21:51 51.15810 -0.17152 204 ft 11 kts 250°
2026-04-17 21:51 51.15791 -0.17277 204 ft 11 kts 258°
2026-04-17 21:51 51.15774 -0.17400 204 ft 11 kts 257°
2026-04-17 21:52 51.15725 -0.17487 204 ft 11 kts 185°
2026-04-17 21:52 51.15644 -0.17468 204 ft 10 kts 168°
2026-04-17 21:52 51.15567 -0.17442 204 ft 10 kts 169°
2026-04-17 21:52 51.15493 -0.17421 204 ft 10 kts 169°
2026-04-17 21:53 51.15422 -0.17397 204 ft 10 kts 168°
2026-04-17 21:53 51.15350 -0.17371 204 ft 9 kts 168°
2026-04-17 21:53 51.15286 -0.17346 204 ft 9 kts 161°
2026-04-17 21:53 51.15246 -0.17271 204 ft 9 kts 96°
2026-04-17 21:54 51.15255 -0.17171 204 ft 8 kts 78°
2026-04-17 21:54 51.15266 -0.17086 204 ft 7 kts 78°
2026-04-17 21:54 51.15277 -0.17010 204 ft 6 kts 78°
2026-04-17 21:54 51.15286 -0.16941 204 ft 6 kts 78°
2026-04-17 21:55 51.15287 -0.16862 204 ft 7 kts 112°
2026-04-17 21:55 51.15250 -0.16817 204 ft 0 kts 163°
2026-04-17 21:55 51.15246 -0.16816 204 ft 0 kts 162°
2026-04-17 21:55 51.15238 -0.16811 204 ft 1 kts 163°
2026-04-17 21:56 51.15224 -0.16806 204 ft 3 kts 166°
2026-04-17 21:56 51.15174 -0.16787 204 ft 8 kts 172°
2026-04-17 21:56 51.15120 -0.16838 204 ft 9 kts 243°
2026-04-17 21:56 51.15116 -0.16855 204 ft 0 kts 248°
2026-04-17 21:57 51.15115 -0.16860 204 ft 0 kts 248°
2026-04-17 21:57 51.15099 -0.16934 204 ft 18 kts 255°
2026-04-17 21:58 51.15030 -0.17439 204 ft 84 kts 257°
2026-04-17 21:58 51.14840 -0.18797 205 ft 154 kts 258°
2026-04-17 21:58 51.14549 -0.20731 839 ft 173 kts 253°
2026-04-17 21:58 51.14262 -0.22692 1640 ft 173 kts 260°
2026-04-17 21:59 51.14205 -0.24715 2109 ft 181 kts 271°
2026-04-17 21:59 51.14245 -0.26691 2634 ft 181 kts 259°
2026-04-17 21:59 51.13844 -0.28736 2923 ft 200 kts 253°
2026-04-17 21:59 51.13781 -0.31045 3351 ft 219 kts 280°
2026-04-17 22:00 51.14520 -0.33370 3885 ft 236 kts 310°
2026-04-17 22:00 51.15970 -0.34905 3962 ft 263 kts 343°
2026-04-17 22:00 51.17752 -0.34879 3980 ft 258 kts 21°
2026-04-17 22:00 51.19172 -0.33197 3984 ft 249 kts 59°
2026-04-17 22:01 51.19699 -0.30604 3991 ft 242 kts 95°
2026-04-17 22:01 51.19588 -0.27955 3983 ft 242 kts 92°
2026-04-17 22:01 51.19752 -0.25305 3987 ft 241 kts 84°
2026-04-17 22:01 51.20054 -0.22652 3994 ft 241 kts 82°
2026-04-17 22:02 51.20376 -0.20029 3996 ft 243 kts 82°
2026-04-17 22:02 51.20736 -0.17243 4006 ft 271 kts 81°
2026-04-17 22:02 51.21150 -0.14109 4095 ft 295 kts 81°
2026-04-17 22:02 51.21587 -0.10768 4877 ft 297 kts 81°
2026-04-17 22:03 51.22036 -0.07335 4986 ft 291 kts 81°
2026-04-17 22:03 51.22459 -0.04101 4993 ft 281 kts 81°
2026-04-17 22:03 51.22866 -0.00975 4996 ft 278 kts 81°
2026-04-17 22:03 51.23268 0.02128 4996 ft 277 kts 81°
2026-04-17 22:04 51.23656 0.05126 4997 ft 277 kts 81°
2026-04-17 22:04 51.24048 0.08161 4997 ft 277 kts 81°
2026-04-17 22:04 51.24451 0.11282 4997 ft 277 kts 81°
2026-04-17 22:04 51.24847 0.14361 4997 ft 277 kts 81°
2026-04-17 22:05 51.25246 0.17468 4997 ft 277 kts 81°
2026-04-17 22:05 51.25413 0.20531 5009 ft 277 kts 96°
2026-04-17 22:05 51.25230 0.23619 5621 ft 284 kts 100°
2026-04-17 22:05 51.24983 0.26831 5973 ft 299 kts 101°
2026-04-17 22:06 51.24725 0.30187 6673 ft 302 kts 100°
2026-04-17 22:06 51.24485 0.33415 7716 ft 291 kts 100°
2026-04-17 22:06 51.24240 0.36638 8376 ft 294 kts 100°
2026-04-17 22:06 51.23967 0.40219 8987 ft 300 kts 100°
2026-04-17 22:07 51.23690 0.43827 9603 ft 304 kts 100°
2026-04-17 22:07 51.23412 0.47461 10188 ft 308 kts 99°
2026-04-17 22:07 51.23137 0.51020 10735 ft 313 kts 99°
2026-04-17 22:07 51.22858 0.54636 11291 ft 317 kts 99°
2026-04-17 22:08 51.22583 0.58188 11832 ft 321 kts 99°
2026-04-17 22:08 51.22290 0.61950 12394 ft 325 kts 99°
2026-04-17 22:08 51.22002 0.65624 12930 ft 329 kts 100°
2026-04-17 22:08 51.21718 0.69253 13444 ft 334 kts 100°
2026-04-17 22:09 51.21426 0.72959 13965 ft 338 kts 100°
2026-04-17 22:09 51.21129 0.76702 14489 ft 343 kts 100°
2026-04-17 22:09 51.20831 0.80461 15004 ft 347 kts 101°
2026-04-17 22:09 51.20525 0.84290 15527 ft 352 kts 101°
2026-04-17 22:10 51.20198 0.88384 16089 ft 356 kts 101°
2026-04-17 22:10 51.19872 0.92425 16626 ft 361 kts 101°
2026-04-17 22:10 51.19544 0.96482 17151 ft 366 kts 101°
2026-04-17 22:10 51.19217 1.00502 17686 ft 369 kts 101°
2026-04-17 22:11 51.18885 1.04561 18221 ft 372 kts 101°
2026-04-17 22:11 51.18549 1.08656 18745 ft 376 kts 102°
2026-04-17 22:11 51.18208 1.12787 19264 ft 379 kts 102°
2026-04-17 22:11 51.17858 1.17012 19783 ft 383 kts 102°
2026-04-17 22:12 51.17508 1.21221 20274 ft 387 kts 102°
2026-04-17 22:12 51.17155 1.25444 20799 ft 389 kts 102°
2026-04-17 22:12 51.16799 1.29686 21366 ft 390 kts 103°
2026-04-17 22:12 51.16434 1.34007 21899 ft 392 kts 103°
2026-04-17 22:13 51.16095 1.38293 22329 ft 398 kts 99°
2026-04-17 22:13 51.15889 1.42696 22762 ft 403 kts 98°
2026-04-17 22:13 51.15694 1.47189 23198 ft 407 kts 98°
2026-04-17 22:13 51.15489 1.51723 23634 ft 411 kts 98°
2026-04-17 22:14 51.15278 1.56263 24068 ft 415 kts 99°
2026-04-17 22:14 51.15060 1.60860 24504 ft 418 kts 99°
2026-04-17 22:14 51.14836 1.65488 24940 ft 421 kts 100°
2026-04-17 22:14 51.14610 1.70108 25353 ft 424 kts 100°
2026-04-17 22:15 51.14378 1.74792 25769 ft 426 kts 100°
2026-04-17 22:15 51.14141 1.79526 26187 ft 428 kts 100°
2026-04-17 22:15 51.13903 1.84217 26600 ft 430 kts 100°
2026-04-17 22:15 51.13662 1.88949 27015 ft 431 kts 100°
2026-04-17 22:16 51.13419 1.93688 27431 ft 432 kts 100°
2026-04-17 22:16 51.13170 1.98492 27852 ft 432 kts 100°
2026-04-17 22:16 51.12922 2.03234 28266 ft 432 kts 100°
2026-04-17 22:16 51.12672 2.07953 28679 ft 432 kts 101°
2026-04-17 22:17 51.12418 2.12701 29095 ft 429 kts 101°
2026-04-17 22:17 51.12163 2.17409 29508 ft 426 kts 101°
2026-04-17 22:17 51.11908 2.22084 29923 ft 422 kts 101°
2026-04-17 22:17 51.11653 2.26715 30049 ft 428 kts 101°
2026-04-17 22:18 51.11386 2.31494 30067 ft 437 kts 101°
2026-04-17 22:18 51.10835 2.41298 30097 ft 456 kts 101°
2026-04-17 22:19 51.10253 2.51530 30130 ft 474 kts 100°
2026-04-17 22:19 51.09638 2.62125 30164 ft 490 kts 102°
2026-04-17 22:20 51.08113 2.72661 30181 ft 496 kts 114°
2026-04-17 22:20 51.07134 2.78051 30179 ft 510 kts 114°
2026-04-17 22:20 51.06147 2.83446 30176 ft 524 kts 114°
2026-04-17 22:20 51.05107 2.89123 30177 ft 538 kts 114°
2026-04-17 22:21 51.04041 2.94926 30176 ft 552 kts 113°
2026-04-17 22:21 51.02962 3.00792 30180 ft 565 kts 112°
2026-04-17 22:21 51.01856 3.06791 30362 ft 574 kts 112°
2026-04-17 22:21 51.00728 3.12911 30875 ft 574 kts 111°
2026-04-17 22:22 50.99614 3.18941 31521 ft 572 kts 111°
2026-04-17 22:22 50.98492 3.25000 32143 ft 570 kts 111°
2026-04-17 22:22 50.97385 3.30956 32689 ft 569 kts 111°
2026-04-17 22:22 50.96257 3.37002 33227 ft 569 kts 111°
2026-04-17 22:23 50.95134 3.43003 33779 ft 568 kts 111°
2026-04-17 22:23 50.94024 3.48920 34334 ft 567 kts 111°
2026-04-17 22:23 50.92898 3.54899 34945 ft 564 kts 110°
2026-04-17 22:23 50.91775 3.60840 35227 ft 566 kts 110°
2026-04-17 22:24 50.90634 3.66854 35239 ft 566 kts 111°
2026-04-17 22:24 50.88372 3.78724 35232 ft 564 kts 111°
2026-04-17 22:25 50.86100 3.90569 35234 ft 562 kts 111°
2026-04-17 22:25 50.83826 4.02354 35236 ft 561 kts 111°
2026-04-17 22:26 50.81545 4.14103 35238 ft 560 kts 111°
2026-04-17 22:26 50.79258 4.25811 35240 ft 559 kts 111°
2026-04-17 22:27 50.76963 4.37493 35242 ft 558 kts 111°
2026-04-17 22:27 50.74668 4.49100 35243 ft 557 kts 111°
2026-04-17 22:28 50.72346 4.60774 35245 ft 557 kts 111°